Change the Weather History Date:

Monday, April 7, 2014

  Actual Average (KMVN) Record (KMVN)
Temperature  
Mean Temperature 48 °F -  
Max Temperature 51 °F 62 °F 80 °F (2001)
Min Temperature 46 °F 42 °F 26 °F (2007)
Degree Days  
Heating Degree Days 16    
Moisture  
Dew Point 43 °F    
Average Humidity 82    
Maximum Humidity 93    
Minimum Humidity 62    
Precipitation  
Precipitation 0.36 in - - ()
Sea Level Pressure  
Sea Level Pressure 29.67 in    
Wind  
Wind Speed 7 mph (NNW)    
Max Wind Speed 17 mph    
Max Gust Speed 25 mph    
Visibility 10 miles    
Events Rain , Thunderstorm    
Averages and records for this station are not official NWS values.
T = Trace of Precipitation, MM = Missing Value Source: NWS Daily Summary

Daily Weather History Graph

Daily Weather History Graph

Search for Another Location

Airport or City:

Trip Planner

Search our weather history database for the weather conditions in past years. The results will help you decide how hot, cold, wet, or windy it might be!

Date:

Astronomy

Apr. 07, 2014 Rise Set
Actual Time 6:29 AM CDT 7:22 PM CDT
Civil Twilight 6:02 AM CDT 7:49 PM CDT
Nautical Twilight 5:30 AM CDT 8:21 PM CDT
Astronomical Twilight 4:57 AM CDT 8:54 PM CDT
Moon 12:27 PM CDT (4/7) 1:57 AM CDT (4/7)
Length of Visible Light 13h 46m
Length of Day
12h 53m
First Quarter, 53% of the Moon is Illuminated
Apr 7
First Quarter
Apr 15
Full
Apr 22
Last Quarter
Apr 29
New
May 6
First Quarter

Hourly Weather History & Observations

Time (CDT) Temp. Windchill Dew Point Humidity Pressure Visibility Wind Dir Wind Speed Gust Speed Precip Events Conditions
12:15 AM 51.8 °F - 41.0 °F 67% 29.85 in 10.0 mi NE 5.8 mph - N/A   Mostly Cloudy
12:35 AM 51.8 °F - 39.2 °F 62% 29.84 in 10.0 mi NNE 6.9 mph - N/A   Mostly Cloudy
12:55 AM 51.8 °F - 41.0 °F 67% 29.82 in 10.0 mi ENE 8.1 mph - N/A   Scattered Clouds
1:15 AM 51.8 °F - 39.2 °F 62% 29.80 in 10.0 mi NNE 5.8 mph - N/A   Scattered Clouds
1:35 AM 51.8 °F - 39.2 °F 62% 29.77 in 10.0 mi NNE 6.9 mph - N/A   Scattered Clouds
1:55 AM 51.8 °F - 41.0 °F 67% 29.77 in 10.0 mi NE 5.8 mph - N/A   Mostly Cloudy
2:15 AM 51.8 °F - 41.0 °F 67% 29.74 in 10.0 mi NE 5.8 mph - N/A   Overcast
2:35 AM 51.8 °F - 41.0 °F 67% 29.74 in 10.0 mi ENE 4.6 mph - N/A   Overcast
2:55 AM 51.8 °F - 39.2 °F 62% 29.74 in 10.0 mi East 8.1 mph - N/A   Overcast
3:15 AM 51.8 °F - 41.0 °F 67% 29.72 in 10.0 mi NE 3.5 mph - N/A   Mostly Cloudy
3:35 AM 51.8 °F - 41.0 °F 67% 29.71 in 10.0 mi NNE 5.8 mph - N/A   Mostly Cloudy
3:55 AM 51.8 °F - 41.0 °F 67% 29.72 in 10.0 mi North 4.6 mph - N/A   Overcast
4:15 AM 51.8 °F - 41.0 °F 67% 29.73 in 10.0 mi NNE 4.6 mph - N/A   Overcast
4:35 AM 50.0 °F - 41.0 °F 71% 29.72 in 10.0 mi North 3.5 mph - N/A   Overcast
4:55 AM 51.8 °F - 41.0 °F 67% 29.72 in 10.0 mi North 5.8 mph - N/A   Overcast
5:15 AM 50.0 °F - 41.0 °F 71% 29.70 in 10.0 mi NNE 5.8 mph - N/A Rain Light Rain
5:35 AM 51.8 °F - 41.0 °F 67% 29.70 in 10.0 mi North 6.9 mph - N/A   Overcast
5:55 AM 50.0 °F - 41.0 °F 71% 29.69 in 10.0 mi North 8.1 mph - N/A Rain Light Rain
6:15 AM 50.0 °F - 42.8 °F 76% 29.70 in 10.0 mi North 5.8 mph - N/A Rain Light Rain
6:35 AM 48.2 °F - 42.8 °F 82% 29.71 in 10.0 mi North 4.6 mph - N/A Rain Light Rain
7:15 AM 48.2 °F - 42.8 °F 82% 29.66 in 10.0 mi NE 9.2 mph - N/A   Overcast
7:35 AM 50.0 °F - 42.8 °F 76% 29.66 in 10.0 mi NNE 5.8 mph - N/A   Overcast
7:55 AM 50.0 °F - 42.8 °F 76% 29.65 in 10.0 mi NNE 6.9 mph - N/A   Overcast
8:15 AM 50.0 °F - 42.8 °F 76% 29.63 in 10.0 mi NNE 6.9 mph - N/A Rain Light Rain
8:35 AM 50.0 °F - 42.8 °F 76% 29.60 in 10.0 mi NE 9.2 mph - N/A   Overcast
8:55 AM 50.0 °F - 42.8 °F 76% 29.60 in 10.0 mi NNE 9.2 mph - N/A Thunderstorm Overcast
9:15 AM 50.0 °F - 42.8 °F 76% 29.61 in 10.0 mi North 5.8 mph - N/A   Drizzle
9:35 AM 48.2 °F - 42.8 °F 82% 29.58 in 10.0 mi NNE 10.4 mph - N/A Rain Rain
9:55 AM 48.2 °F - 44.6 °F 87% 29.59 in 10.0 mi North 5.8 mph - 0.03 in Rain Rain
10:15 AM 48.2 °F - 44.6 °F 87% 29.57 in 10.0 mi North 6.9 mph - 0.03 in Rain Rain
10:55 AM 48.2 °F - 44.6 °F 87% 29.59 in 10.0 mi North 4.6 mph - 0.07 in Rain Rain
11:15 AM 48.2 °F - 44.6 °F 87% 29.58 in 10.0 mi NNW 4.6 mph - 0.05 in Rain Rain
11:35 AM 46.4 °F 41.5 °F 44.6 °F 93% 29.55 in 7.0 mi North 10.4 mph - 0.11 in Rain Heavy Rain
11:55 AM 48.2 °F - 46.4 °F 93% 29.52 in 10.0 mi North 17.3 mph 21.9 mph 0.15 in Rain Rain
12:15 PM 50.0 °F - 46.4 °F 87% 29.53 in 10.0 mi NNW 12.7 mph 20.7 mph N/A Rain Light Rain
12:35 PM 50.0 °F - 46.4 °F 87% 29.53 in 10.0 mi NNW 13.8 mph 19.6 mph N/A   Overcast
12:55 PM 48.2 °F - 44.6 °F 87% 29.53 in 10.0 mi NNW 10.4 mph 20.7 mph N/A   Overcast
1:15 PM 48.2 °F - 44.6 °F 87% 29.54 in 10.0 mi NW 9.2 mph 16.1 mph N/A Rain Rain
1:35 PM 48.2 °F - 44.6 °F 87% 29.54 in 7.0 mi NNW 10.4 mph 18.4 mph 0.02 in Rain Rain
1:55 PM 48.2 °F - 44.6 °F 87% 29.55 in 10.0 mi NNW 12.7 mph 17.3 mph 0.03 in Rain Rain
2:15 PM 48.2 °F - 44.6 °F 87% 29.55 in 5.0 mi NNW 10.4 mph 20.7 mph 0.02 in Rain Light Rain
2:35 PM 46.4 °F 41.1 °F 44.6 °F 93% 29.55 in 5.0 mi NNW 11.5 mph 19.6 mph 0.02 in   Drizzle
2:55 PM 46.4 °F 40.4 °F 44.6 °F 93% 29.56 in 10.0 mi NNW 13.8 mph 19.6 mph 0.02 in   Drizzle
3:15 PM 46.4 °F 41.1 °F 44.6 °F 93% 29.56 in 7.0 mi NNW 11.5 mph 25.3 mph N/A Rain Light Rain
3:35 PM 46.4 °F 41.1 °F 44.6 °F 93% 29.56 in 10.0 mi NW 11.5 mph 18.4 mph N/A Rain Light Rain
3:55 PM 48.2 °F - 44.6 °F 87% 29.57 in 10.0 mi NW 12.7 mph 24.2 mph N/A   Light Drizzle
4:15 PM 48.2 °F - 44.6 °F 87% 29.58 in 10.0 mi NW 12.7 mph 19.6 mph N/A Rain Light Rain
4:35 PM 46.4 °F 41.5 °F 44.6 °F 93% 29.60 in 7.0 mi NW 10.4 mph 20.7 mph 0.01 in Rain Light Rain
4:55 PM 46.4 °F 41.1 °F 44.6 °F 93% 29.61 in 7.0 mi NW 11.5 mph 17.3 mph 0.02 in Rain Light Rain
5:15 PM 46.4 °F 40.7 °F 42.8 °F 87% 29.62 in 5.0 mi NW 12.7 mph 23.0 mph N/A Rain Light Rain
5:35 PM 46.4 °F 41.1 °F 42.8 °F 87% 29.64 in 10.0 mi NW 11.5 mph 24.2 mph 0.01 in Rain Light Rain
5:55 PM 46.4 °F 42.4 °F 42.8 °F 87% 29.65 in 7.0 mi NW 8.1 mph 17.3 mph 0.01 in Rain Light Rain
6:15 PM 46.4 °F 41.5 °F 42.8 °F 87% 29.67 in 10.0 mi NW 10.4 mph 19.6 mph N/A Rain Light Rain
6:35 PM 46.4 °F 43.5 °F 42.8 °F 87% 29.68 in 10.0 mi WNW 5.8 mph - 0.01 in Rain Light Rain
6:55 PM 46.4 °F 45.2 °F 42.8 °F 87% 29.69 in 10.0 mi WNW 3.5 mph - 0.01 in   Light Drizzle
7:15 PM 46.4 °F 44.3 °F 42.8 °F 87% 29.69 in 10.0 mi West 4.6 mph - 0.01 in Rain Light Rain
7:35 PM 46.4 °F - 44.6 °F 93% 29.70 in 10.0 mi Calm Calm - 0.01 in Rain Light Rain
7:55 PM 46.4 °F - 44.6 °F 93% 29.70 in 10.0 mi Calm Calm - 0.01 in   Drizzle
8:15 PM 46.4 °F - 44.6 °F 93% 29.72 in 10.0 mi Calm Calm - 0.01 in   Light Drizzle
8:35 PM 46.4 °F - 44.6 °F 93% 29.73 in 10.0 mi Calm Calm - 0.01 in   Light Drizzle
8:55 PM 46.4 °F - 44.6 °F 93% 29.74 in 10.0 mi Calm Calm - 0.01 in   Mostly Cloudy
9:15 PM 46.4 °F - 44.6 °F 93% 29.75 in 10.0 mi Calm Calm - N/A   Mostly Cloudy
9:35 PM 46.4 °F 42.9 °F 44.6 °F 93% 29.75 in 10.0 mi WSW 6.9 mph - N/A   Overcast
9:55 PM 46.4 °F 44.3 °F 44.6 °F 93% 29.75 in 10.0 mi WSW 4.6 mph - N/A   Overcast
10:15 PM 46.4 °F 42.9 °F 42.8 °F 87% 29.75 in 10.0 mi West 6.9 mph - N/A   Mostly Cloudy
10:35 PM 46.4 °F 42.9 °F 42.8 °F 87% 29.74 in 10.0 mi West 6.9 mph - N/A   Mostly Cloudy
10:55 PM 46.4 °F 40.7 °F 42.8 °F 87% 29.75 in 10.0 mi WSW 12.7 mph 17.3 mph N/A   Mostly Cloudy
11:15 PM 46.4 °F 42.4 °F 42.8 °F 87% 29.76 in 10.0 mi West 8.1 mph - N/A   Overcast
11:35 PM 46.4 °F 41.9 °F 42.8 °F 87% 29.76 in 10.0 mi WSW 9.2 mph - N/A   Mostly Cloudy
11:55 PM 46.4 °F 41.9 °F 44.6 °F 93% 29.77 in 10.0 mi WSW 9.2 mph - N/A   Overcast